Weather History for KLNS - November, 2014

Change the Weather History Date:

Saturday, November 29, 2014

  Actual Average Record
Temperature  
Mean Temperature 28 °F -  
Max Temperature 35 °F 51 °F 69 °F (1998)
Min Temperature 21 °F 33 °F 21 °F (2013)
Degree Days  
Heating Degree Days 37    
Moisture  
Dew Point 21 °F    
Average Humidity 72    
Maximum Humidity 85    
Minimum Humidity 56    
Precipitation  
Precipitation 0.00 in - - ()
Sea Level Pressure  
Sea Level Pressure 30.27 in    
Wind  
Wind Speed 3 mph (ESE)    
Max Wind Speed 10 mph    
Max Gust Speed -    
Visibility 10 miles    
Events      
Averages and records for this station are not official NWS values.
T = Trace of Precipitation, MM = Missing Value Source: NWS Daily Summary

Daily Weather History Graph

Daily Weather History Graph

Search for Another Location

Airport or City:

Trip Planner

Search our weather history database for the weather conditions in past years. The results will help you decide how hot, cold, wet, or windy it might be!

Date:

Astronomy

Nov. 29, 2014 Rise Set
Actual Time 7:06 AM EST 4:40 PM EST
Civil Twilight 6:36 AM EST 5:10 PM EST
Nautical Twilight 6:02 AM EST 5:44 PM EST
Astronomical Twilight 5:29 AM EST 6:16 PM EST
Moon 12:34 PM EST No Moon Set
Length of Visible Light 10h 34m
Length of Day
9h 34m
First Quarter, 53% of the Moon is Illuminated
Nov 29
First Quarter
Dec 6
Full
Dec 14
Last Quarter
Dec 21
New
Dec 28
First Quarter

Hourly Weather History & Observations

Time (EST) Temp. Windchill Dew Point Humidity Pressure Visibility Wind Dir Wind Speed Gust Speed Precip Events Conditions
12:53 AM 25.0 °F - 17.1 °F 72% 30.30 in 10.0 mi Calm Calm - N/A   Overcast
1:53 AM 26.1 °F - 17.1 °F 69% 30.31 in 10.0 mi Calm Calm - N/A   Mostly Cloudy
2:53 AM 25.0 °F - 15.1 °F 66% 30.31 in 10.0 mi Calm Calm - N/A   Clear
3:53 AM 21.9 °F - 16.0 °F 78% 30.31 in 10.0 mi Calm Calm - N/A   Clear
4:53 AM 21.0 °F - 17.1 °F 85% 30.31 in 9.0 mi Calm Calm - N/A   Clear
5:53 AM 23.0 °F - 18.0 °F 81% 30.32 in 10.0 mi Calm Calm - N/A   Mostly Cloudy
6:53 AM 23.0 °F 18.4 °F 18.0 °F 81% 30.33 in 9.0 mi ESE 3.5 mph - N/A   Overcast
7:53 AM 24.1 °F 19.7 °F 19.9 °F 84% 30.34 in 6.0 mi East 3.5 mph - N/A   Overcast
8:53 AM 26.1 °F - 19.9 °F 78% 30.34 in 8.0 mi Calm Calm - N/A   Overcast
9:53 AM 28.0 °F - 19.0 °F 69% 30.34 in 10.0 mi Calm Calm - N/A   Overcast
10:53 AM 30.0 °F 25.2 °F 19.9 °F 66% 30.33 in 10.0 mi ESE 4.6 mph - N/A   Overcast
11:53 AM 30.9 °F 22.8 °F 19.0 °F 61% 30.30 in 10.0 mi SSE 9.2 mph - N/A   Overcast
12:53 PM 33.1 °F 25.5 °F 19.9 °F 59% 30.27 in 10.0 mi SSE 9.2 mph - N/A   Scattered Clouds
1:53 PM 34.0 °F 26.0 °F 19.9 °F 56% 30.25 in 10.0 mi SE 10.4 mph - N/A   Clear
2:53 PM 34.0 °F 26.6 °F 21.9 °F 61% 30.25 in 10.0 mi SE 9.2 mph - N/A   Clear
3:53 PM 33.1 °F 26.9 °F 24.1 °F 70% 30.25 in 10.0 mi ESE 6.9 mph - N/A   Clear
4:53 PM 32.0 °F 27.5 °F 25.0 °F 75% 30.25 in 10.0 mi East 4.6 mph - N/A   Mostly Cloudy
5:53 PM 33.1 °F 24.9 °F 25.0 °F 72% 30.23 in 10.0 mi ESE 10.4 mph - N/A   Overcast
6:53 PM 32.0 °F 25.6 °F 25.0 °F 75% 30.24 in 10.0 mi ESE 6.9 mph - N/A   Clear
7:53 PM 33.1 °F 26.9 °F 26.1 °F 75% 30.23 in 10.0 mi East 6.9 mph - N/A   Overcast
8:53 PM 34.0 °F 26.6 °F 27.0 °F 75% 30.21 in 10.0 mi ESE 9.2 mph - N/A   Overcast
9:53 PM 34.0 °F 26.6 °F 27.0 °F 75% 30.18 in 10.0 mi ESE 9.2 mph - N/A   Overcast
10:53 PM 35.1 °F 30.1 °F 28.0 °F 76% 30.17 in 10.0 mi East 5.8 mph - N/A   Overcast
11:53 PM 35.1 °F 29.3 °F 28.9 °F 78% 30.16 in 10.0 mi East 6.9 mph - N/A   Overcast